Location: Waco, TX
(31.5480°N, 97.1670°W)
Time: 00:25:16
(UTC-05:00)

ISS - Pass Details

Date: 22 May 2018
Orbit: 402 x 407 km, 51.6° (Epoch: 24 May)

Event Time Altitude Azimuth Distance (km) Brightness Sun altitude
Rises 05:28:07 0° 311° (NW) 2,312 -0.1 -12.0°
Reaches altitude 10° 05:30:12 10° 308° (NW) 1,451 -1.2 -11.7°
Maximum altitude 05:33:25 62° 228° (SW) 454 -3.9 -11.1°
Drops below altitude 10° 05:36:37 10° 146° (SE) 1,444 -1.0 -10.5°
Sets 05:38:42 0° 143° (SE) 2,300 0.1 -10.1°
